| time (UTC) | temp F | wind direction | speed MPH | gust MPH | rain 1hr in | rain 24hr in | rain mn in | humidity % | barometer mb |
| 20260510020433 | 54 | 345 | 0.0 | 0.0 | 0.00 | 0.33 | 0.00 | 1012.8 | |
| 20260510015431 | 55 | 345 | 0.0 | 0.0 | 0.00 | 0.33 | 0.00 | 1012.7 | |
| 20260510014431 | 54 | 345 | 0.0 | 0.0 | 0.00 | 0.33 | 0.00 | 1012.7 | |
| 20260510013432 | 54 | 302 | 0.0 | 0.0 | 0.00 | 0.33 | 0.00 | 1012.6 | |
| 20260510012433 | 54 | 302 | 0.0 | 0.0 | 0.00 | 0.33 | 0.00 | 1012.4 | |
| 20260510011435 | 55 | 304 | 0.0 | 0.0 | 0.00 | 0.33 | 0.00 | 1012.4 | |
| 20260510010432 | 54 | 304 | 0.0 | 0.0 | 0.00 | 0.33 | 0.00 | 1012.5 | |
| 20260510005426 | 54 | 311 | 0.0 | 0.0 | 0.00 | 0.33 | 0.00 | 1012.5 | |
| 20260510004429 | 54 | 326 | 4.0 | 4.0 | 0.00 | 0.33 | 0.00 | 1012.7 | |
| 20260510003431 | 55 | 38 | 0.0 | 0.0 | 0.00 | 0.33 | 0.00 | 1012.7 | |
| 20260510002429 | 55 | 38 | 0.0 | 0.0 | 0.00 | 0.33 | 0.00 | 1012.8 | |
| 20260510001432 | 55 | 38 | 0.0 | 0.0 | 0.00 | 0.33 | 0.00 | 1012.9 | |
| 20260510000426 | 55 | 38 | 0.0 | 0.0 | 0.00 | 0.33 | 0.00 | 1012.9 | |
| 20260509235415 | 55 | 38 | 0.0 | 0.0 | 0.00 | 0.33 | 0.00 | 1013.2 | |
| 20260509234416 | 55 | 38 | 0.0 | 0.0 | 0.00 | 0.33 | 0.00 | 1013.4 | |
| 20260509233417 | 55 | 38 | 0.0 | 0.0 | 0.00 | 0.33 | 0.00 | 1013.4 | |
| 20260509232415 | 55 | 38 | 0.0 | 0.0 | 0.00 | 0.33 | 0.00 | 1013.3 | |
| 20260509231417 | 55 | 38 | 0.0 | 0.0 | 0.00 | 0.33 | 0.00 | 1013.4 | |
| 20260509230420 | 56 | 38 | 0.0 | 0.0 | 0.00 | 0.33 | 0.00 | 1013.3 | |
| 20260509225416 | 56 | 38 | 0.0 | 0.0 | 0.00 | 0.33 | 0.00 | 1013.4 | |
| 20260509224411 | 56 | 38 | 0.0 | 0.0 | 0.00 | 0.33 | 0.00 | 1013.4 | |
| 20260509223414 | 57 | 38 | 0.0 | 0.0 | 0.00 | 0.33 | 0.00 | 1013.4 | |
| 20260509222412 | 57 | 38 | 0.0 | 0.0 | 0.00 | 0.33 | 0.00 | 1013.4 | |
| 20260509221409 | 57 | 84 | 0.0 | 0.0 | 0.00 | 0.33 | 0.00 | 1013.3 | |
| 20260509220412 | 58 | 84 | 0.0 | 0.0 | 0.00 | 0.33 | 0.00 | 1013.3 | |
| 20260509215410 | 58 | 304 | 0.0 | 0.0 | 0.00 | 0.00 | 0.33 | 1013.3 | |
| 20260509214413 | 58 | 304 | 0.0 | 0.0 | 0.00 | 0.00 | 0.33 | 1013.3 | |
| 20260509213347 | 58 | 304 | 0.0 | 0.0 | 0.00 | 0.00 | 0.33 | 1013.4 | |
| 20260509212347 | 58 | 304 | 0.0 | 0.0 | 0.00 | 0.00 | 0.33 | 1013.2 | |
| 20260509211339 | 58 | 319 | 1.0 | 0.0 | 0.00 | 0.00 | 0.33 | 1013.2 | |
| 20260509210340 | 58 | 290 | 0.0 | 0.0 | 0.00 | 0.00 | 0.33 | 1013.2 | |
| 20260509205338 | 57 | 290 | 0.0 | 0.0 | 0.00 | 0.00 | 0.33 | 1012.9 | |
| 20260509204323 | 57 | 291 | 2.0 | 1.0 | 0.00 | 0.00 | 0.33 | 1012.9 | |
| 20260509203325 | 57 | 342 | 0.0 | 0.0 | 0.00 | 0.00 | 0.33 | 1012.7 | |
| 20260509202322 | 58 | 304 | 2.0 | 2.0 | 0.00 | 0.00 | 0.33 | 1012.5 | |
| 20260509201312 | 57 | 252 | 2.0 | 2.0 | 0.00 | 0.00 | 0.33 | 1012.4 | |
| 20260509194314 | 58 | 66 | 1.0 | 1.0 | 0.00 | 0.00 | 0.33 | 1011.7 | |
| 20260509193313 | 58 | 25 | 0.0 | 0.0 | 0.00 | 0.00 | 0.33 | 1011.7 | |
| 20260509192315 | 58 | 25 | 0.0 | 0.0 | 0.00 | 0.00 | 0.33 | 1011.6 | |
| 20260509191259 | 58 | 25 | 0.0 | 0.0 | 0.00 | 0.00 | 0.33 | 1011.5 | |
| 20260509190246 | 58 | 82 | 2.0 | 1.0 | 0.00 | 0.00 | 0.33 | 1011.3 | |
| 20260509185249 | 58 | 129 | 3.0 | 1.0 | 0.03 | 0.00 | 0.33 | 1011.2 | |
| 20260509184243 | 58 | 159 | 3.0 | 5.0 | 0.03 | 0.00 | 0.33 | 1011.0 | |
| 20260509183243 | 58 | 141 | 3.0 | 4.0 | 0.03 | 0.00 | 0.33 | 1010.5 | |
| 20260509182231 | 59 | 24 | 0.0 | 0.0 | 0.03 | 0.00 | 0.33 | 1010.3 | |
| 20260509181149 | 58 | 24 | 2.0 | 0.0 | 0.03 | 0.00 | 0.33 | 1010.1 | |
| 20260509175040 | 59 | 79 | 2.0 | 2.0 | 0.13 | 0.00 | 0.33 | 1010.1 | |
| 20260509173936 | 58 | 35 | 7.0 | 2.0 | 0.13 | 0.00 | 0.33 | 1009.9 | |
| 20260509172510 | 58 | 359 | 6.0 | 7.0 | 0.13 | 0.00 | 0.33 | 1009.6 | |
| 20260509171443 | 58 | 15 | 3.0 | 4.0 | 0.13 | 0.00 | 0.32 | 1009.7 | |
| 20260509170444 | 58 | 318 | 4.0 | 6.0 | 0.13 | 0.00 | 0.31 | 1010.1 | |
| 20260509165443 | 58 | 343 | 3.0 | 3.0 | 0.14 | 0.00 | 0.30 | 1010.8 | |
| 20260509164434 | 58 | 330 | 0.0 | 0.0 | 0.14 | 0.00 | 0.28 | 1011.3 | |
| 20260509163419 | 58 | 350 | 3.0 | 5.0 | 0.14 | 0.00 | 0.26 | 1011.7 | |
| 20260509162422 | 59 | 6 | 3.0 | 4.0 | 0.14 | 0.00 | 0.23 | 1012.0 | |
| 20260509161416 | 59 | 53 | 3.0 | 2.0 | 0.14 | 0.00 | 0.21 | 1012.4 | |
| 20260509160419 | 58 | 207 | 0.0 | 0.0 | 0.14 | 0.00 | 0.20 | 1012.7 | |
| 20260509155419 | 58 | 228 | 3.0 | 1.0 | 0.03 | 0.00 | 0.17 | 1012.7 | |
| 20260509154416 | 58 | 193 | 6.0 | 2.0 | 0.03 | 0.00 | 0.14 | 1012.6 | |
| 20260509153419 | 59 | 231 | 6.0 | 4.0 | 0.03 | 0.00 | 0.12 | 1012.7 | |
| 20260509152358 | 59 | 239 | 7.0 | 9.0 | 0.03 | 0.00 | 0.08 | 1012.6 | |
| 20260509151356 | 60 | 236 | 9.0 | 9.0 | 0.03 | 0.00 | 0.06 | 1011.5 | |
| 20260509150318 | 61 | 136 | 2.0 | 0.0 | 0.03 | 0.00 | 0.04 | 1010.2 | |
| 20260509145259 | 61 | 72 | 3.0 | 7.0 | 0.00 | 0.00 | 0.03 | 1010.0 | |
| 20260509144258 | 60 | 117 | 3.0 | 2.0 | 0.00 | 0.00 | 0.03 | 1010.0 | |
| 20260509143237 | 61 | 76 | 1.0 | 4.0 | 0.00 | 0.00 | 0.03 | 1010.3 | |
| 20260509142227 | 61 | 96 | 4.0 | 3.0 | 0.00 | 0.00 | 0.02 | 1010.5 | |
| 20260509141155 | 62 | 89 | 4.0 | 4.0 | 0.00 | 0.00 | 0.00 | 1010.9 | |
| 20260509140146 | 64 | 122 | 7.0 | 6.0 | 0.00 | 0.00 | 0.00 | 1011.2 | |
| 20260509135148 | 65 | 138 | 5.0 | 5.0 | 0.00 | 0.00 | 0.00 | 1011.6 | |
| 20260509134151 | 65 | 188 | 5.0 | 4.0 | 0.00 | 0.00 | 0.00 | 1011.6 | |
| 20260509133146 | 66 | 131 | 7.0 | 3.0 | 0.00 | 0.00 | 0.00 | 1012.0 | |
| 20260509132149 | 66 | 159 | 4.0 | 4.0 | 0.00 | 0.00 | 0.00 | 1011.9 | |
| 20260509131129 | 66 | 56 | 4.0 | 2.0 | 0.00 | 0.00 | 0.00 | 1011.8 | |
| 20260509130111 | 66 | 172 | 0.0 | 0.0 | 0.00 | 0.00 | 0.00 | 1011.4 | |
| 20260509125111 | 67 | 48 | 7.0 | 6.0 | 0.00 | 0.00 | 0.00 | 1011.3 | |
| 20260509124113 | 66 | 333 | 1.0 | 2.0 | 0.00 | 0.00 | 0.00 | 1011.2 | |
| 20260509123113 | 66 | 63 | 7.0 | 11.0 | 0.00 | 0.00 | 0.00 | 1011.0 | |
| 20260509122116 | 66 | 118 | 3.0 | 3.0 | 0.00 | 0.00 | 0.00 | 1011.3 | |
| 20260509121118 | 66 | 135 | 6.0 | 6.0 | 0.00 | 0.00 | 0.00 | 1011.9 | |
| 20260509120119 | 66 | 117 | 8.0 | 8.0 | 0.00 | 0.00 | 0.00 | 1012.2 | |
| 20260509115055 | 66 | 121 | 5.0 | 5.0 | 0.00 | 0.00 | 0.00 | 1012.6 | |
| 20260509114057 | 66 | 149 | 6.0 | 7.0 | 0.00 | 0.00 | 0.00 | 1012.7 | |
| 20260509113043 | 66 | 155 | 5.0 | 11.0 | 0.00 | 0.00 | 0.00 | 1012.9 | |
| 20260509112043 | 66 | 162 | 6.0 | 2.0 | 0.00 | 0.00 | 0.00 | 1012.9 | |
| 20260509111028 | 66 | 77 | 6.0 | 9.0 | 0.00 | 0.00 | 0.00 | 1012.9 | |
| 20260509110016 | 65 | 181 | 9.0 | 10.0 | 0.00 | 0.00 | 0.00 | 1012.8 | |
| 20260509105000 | 65 | 152 | 6.0 | 4.0 | 0.00 | 0.00 | 0.00 | 1012.9 | |
| 20260509103932 | 66 | 118 | 6.0 | 6.0 | 0.00 | 0.00 | 0.00 | 1012.9 | |
| 20260509102926 | 66 | 186 | 5.0 | 5.0 | 0.00 | 0.00 | 0.00 | 1013.1 | |
| 20260509101928 | 66 | 129 | 5.0 | 7.0 | 0.00 | 0.00 | 0.00 | 1013.0 | |
| 20260509100912 | 67 | 108 | 6.0 | 5.0 | 0.00 | 0.00 | 0.00 | 1012.8 | |
| 20260509095910 | 67 | 39 | 4.0 | 2.0 | 0.00 | 0.00 | 0.00 | 1013.1 | |
| 20260509094902 | 67 | 103 | 4.0 | 2.0 | 0.00 | 0.00 | 0.00 | 1012.9 | |
| 20260509093900 | 66 | 121 | 9.0 | 5.0 | 0.00 | 0.00 | 0.00 | 1012.9 | |
| 20260509092843 | 66 | 37 | 7.0 | 4.0 | 0.00 | 0.00 | 0.00 | 1012.0 | |
| 20260509091846 | 66 | 75 | 6.0 | 9.0 | 0.00 | 0.00 | 0.00 | 1012.7 | |
| 20260509090845 | 66 | 91 | 3.0 | 3.0 | 0.00 | 0.00 | 0.00 | 1012.9 | |
| 20260509085844 | 66 | 359 | 1.0 | 3.0 | 0.00 | 0.00 | 0.00 | 1012.6 | |
| 20260509084843 | 65 | 141 | 5.0 | 6.0 | 0.00 | 0.00 | 0.00 | 1012.7 | |
| 20260509083843 | 63 | 305 | 2.0 | 5.0 | 0.00 | 0.00 | 0.00 | 1012.8 | |
| 20260509082845 | 64 | 1 | 7.0 | 6.0 | 0.00 | 0.00 | 0.00 | 1012.8 | |
| 20260509081834 | 64 | 224 | 3.0 | 3.0 | 0.00 | 0.00 | 0.00 | 1012.7 | |
| 20260509080837 | 64 | 336 | 4.0 | 1.0 | 0.00 | 0.00 | 0.00 | 1012.4 | |
| 20260509075836 | 64 | 6 | 0.0 | 0.0 | 0.00 | 0.00 | 0.00 | 1012.5 | |
| 20260509074830 | 62 | 354 | 2.0 | 4.0 | 0.00 | 0.00 | 0.00 | 1012.6 | |
| 20260509073821 | 61 | 308 | 6.0 | 7.0 | 0.00 | 0.00 | 0.00 | 1012.8 | |
| 20260509072819 | 60 | 308 | 5.0 | 6.0 | 0.00 | 0.00 | 0.00 | 1013.0 | |
| 20260509071817 | 59 | 323 | 4.0 | 7.0 | 0.00 | 0.00 | 0.00 | 1013.1 | |
| 20260509070808 | 59 | 329 | 7.0 | 7.0 | 0.00 | 0.00 | 0.00 | 1013.2 | |
| 20260509065748 | 58 | 329 | 7.0 | 9.0 | 0.00 | 0.00 | 0.00 | 1013.5 | |
| 20260509064751 | 59 | 347 | 4.0 | 5.0 | 0.00 | 0.00 | 0.00 | 1013.5 | |
| 20260509063749 | 59 | 326 | 5.0 | 5.0 | 0.00 | 0.00 | 0.00 | 1013.5 | |
| 20260509062752 | 58 | 10 | 6.0 | 5.0 | 0.00 | 0.00 | 0.00 | 1013.4 | |
| 20260509061750 | 59 | 7 | 0.0 | 0.0 | 0.00 | 0.00 | 0.00 | 1013.6 | |
| 20260509060748 | 58 | 339 | 4.0 | 5.0 | 0.00 | 0.00 | 0.00 | 1013.6 | |
| 20260509055739 | 58 | 329 | 5.0 | 6.0 | 0.00 | 0.00 | 0.00 | 1013.6 | |
| 20260509054739 | 57 | 269 | 6.0 | 8.0 | 0.00 | 0.00 | 0.00 | 1013.3 | |
| 20260509053742 | 57 | 326 | 4.0 | 6.0 | 0.00 | 0.00 | 0.00 | 1013.2 | |
| 20260509052745 | 57 | 335 | 4.0 | 6.0 | 0.00 | 0.00 | 0.00 | 1013.3 | |
| 20260509051747 | 58 | 329 | 1.0 | 4.0 | 0.00 | 0.00 | 0.00 | 1013.4 | |
| 20260509050750 | 57 | 7 | 3.0 | 2.0 | 0.00 | 0.00 | 0.00 | 1013.7 | |
| 20260509045753 | 57 | 305 | 5.0 | 5.0 | 0.00 | 0.00 | 0.00 | 1013.6 | |
| 20260509044744 | 57 | 340 | 5.0 | 8.0 | 0.00 | 0.00 | 0.00 | 1013.6 | |
| 20260509043746 | 57 | 11 | 4.0 | 3.0 | 0.00 | 0.00 | 0.00 | 1013.4 | |
| 20260509042749 | 57 | 336 | 4.0 | 4.0 | 0.00 | 0.00 | 0.00 | 1013.6 | |
| 20260509041745 | 58 | 335 | 3.0 | 3.0 | 0.00 | 0.00 | 0.00 | 1013.7 | |
| 20260509040744 | 58 | 314 | 5.0 | 8.0 | 0.00 | 0.00 | 0.00 | 1013.7 | |
| 20260509035746 | 58 | 347 | 7.0 | 6.0 | 0.00 | 0.00 | 0.00 | 1013.7 | |
| 20260509034749 | 59 | 323 | 5.0 | 5.0 | 0.00 | 0.00 | 0.00 | 1013.8 | |
| 20260509033746 | 59 | 325 | 0.0 | 0.0 | 0.00 | 0.00 | 0.00 | 1013.8 | |
| 20260509032748 | 59 | 359 | 7.0 | 6.0 | 0.00 | 0.00 | 0.00 | 1013.7 | |
| 20260509031751 | 58 | 352 | 6.0 | 4.0 | 0.00 | 0.00 | 0.00 | 1014.0 | |
| 20260509030753 | 58 | 352 | 6.0 | 6.0 | 0.00 | 0.00 | 0.00 | 1013.9 | |
| 20260509025750 | 58 | 11 | 6.0 | 4.0 | 0.00 | 0.00 | 0.00 | 1013.9 | |
| 20260509024753 | 57 | 10 | 4.0 | 7.0 | 0.00 | 0.00 | 0.00 | 1013.9 | |
| 20260509023755 | 57 | 321 | 4.0 | 6.0 | 0.00 | 0.00 | 0.00 | 1013.9 | |
| 20260509022752 | 58 | 314 | 7.0 | 8.0 | 0.00 | 0.00 | 0.00 | 1014.0 | |
| 20260509021754 | 57 | 301 | 5.0 | 3.0 | 0.00 | 0.00 | 0.00 | 1014.0 |